This demonstration page uses our WeatherBlox Daily Observations layout. Learn more.

Left ArrowRight Arrow

Hourly Observations for May 27, 2015

Temp ( °F °C ) Dew Point ( °F °C ) Humidity (%) Winds ( mph kmh ) Pressure ( in mb ) Visibility ( mi km ) Precip ( " mm )
12:58 am 00:58 Clear 56 13.5 54 12.1 91 91 SSW 1 2 29.93 1014 10 16 0.00 0.00
1:58 am 01:58 Clear 54 12.1 52 11.2 94 94 WNW 5 7 29.94 1014 10 16 0.00 0.00
2:58 am 02:58 Clear 55 12.7 53 11.8 94 94 WSW 5 7 29.94 1014 10 16 0.00 0.00
3:58 am 03:58 Clear 52 11 50 10 94 94 WNW 3 6 29.98 1015 10 16 0.00 0.00
4:58 am 04:58 Clear 55 12.5 52 10.9 90 90 W 5 7 30.00 1016 10 16 0.00 0.00
5:58 am 05:58 Sunny 50 9.8 48 9.1 95 95 WNW 2 4 30.01 1016 8 13 0.00 0.00
6:58 am 06:58 Sunny 52 11 51 10.4 96 96 S 2 4 30.03 1017 10 16 0.00 0.00
7:58 am 07:58 Sunny 60 15.5 54 12.1 80 80 SW 3 6 30.03 1017 10 16 0.00 0.00
8:58 am 08:58 Sunny 64 17.8 56 13.2 75 75 WNW 6 9 30.04 1017 10 16 0.00 0.00
9:58 am 09:58 Sunny 69 20.3 57 14.1 68 68 W 3 6 30.05 1018 10 16 0.00 0.00
10:58 am 10:58 Sunny 73 22.6 56 13.6 57 57 Calm 30.06 1018 10 16 0.00 0.00
11:58 am 11:58 Sunny 77 24.8 57 14 51 51 VRB 2 4 30.06 1018 10 16 0.00 0.00
12:58 pm 12:58 Sunny 79 26.1 59 14.8 50 50 VRB 6 9 30.06 1018 10 16 0.00 0.00
1:58 pm 13:58 Sunny 81 27.3 52 11 36 36 SW 10 17 30.06 1018 10 16 0.00 0.00
2:58 pm 14:58 Sunny 82 27.6 49 9.3 32 32 VRB 1 2 30.04 1017 10 16 0.00 0.00
3:58 pm 15:58 Sunny 82 28 53 11.7 36 36 W 7 11 30.05 1018 10 16 0.00 0.00
4:58 pm 16:58 Sunny 83 28.2 50 10.1 32 32 SSW 8 13 30.04 1017 10 16 0.00 0.00
5:58 pm 17:58 Sunny 81 27 52 11 37 37 SE 5 7 30.03 1017 10 16 0.00 0.00
6:58 pm 18:58 Sunny 78 25.6 50 10.1 38 38 Calm 30.02 1017 10 16 0.00 0.00
7:58 pm 19:58 Sunny 78 25.3 49 9.7 37 37 SSE 2 4 30.01 1016 10 16 0.00 0.00
8:58 pm 20:58 Clear 71 21.4 52 11.1 52 52 Calm 30.03 1017 10 16 0.00 0.00
9:58 pm 21:58 Clear 61 16.2 55 12.6 79 79 Calm 30.05 1018 10 16 0.00 0.03
10:58 pm 22:58 Clear 59 15.1 56 13.4 90 90 Calm 30.06 1018 10 16 0.00 0.00
11:58 pm 23:58 Clear 58 14.6 55 12.5 87 87 E 2 4 30.07 1018 10 16 0.00 0.00

Powered by AerisWeather